[TLELIST] Archives

 

Current TLEs

July 9th 2006 PDT

HST 1 20580U 90037B 06189.65256711 .00000440 00000-0 21484-4 0 6494 2 20580 028.4689 269.9506 0003868 057.5190 302.5784 15.00062630688322 ISS (ZARYA) 1 25544U 98067A 06190.49662985 .00008834 00000-0 59037-4 0 2607 2 25544 051.6340 072.5656 0010492 057.8538 003.5112 15.76210719436682 CXO 1 25867U 99040B 06188.91666667 .00000000 00000-0 00000+0 0 9472 2 25867 059.8984 096.4228 5798788 290.5241 000.1184 00.37789498 1212 ____________________________________________________________________ These 2-Line ...Continue Reading

Current TLEs

July 8th 2006 PDT

HST 1 20580U 90037B 06188.52150231 .00000432 00000-0 20831-4 0 6484 2 20580 028.4691 277.3271 0003461 044.1242 315.9621 15.00061812688156 ISS (ZARYA) 1 25544U 98067A 06189.47225694 .00016517 00000-0 10667-3 0 2539 2 25544 051.6318 077.8394 0010589 054.0772 310.7656 15.76208806436523 CXO 1 25867U 99040B 06188.91666667 .00000000 00000-0 00000+0 0 9472 2 25867 059.8984 096.4228 5798788 290.5241 000.1184 00.37789498 1212 ____________________________________________________________________ These 2-Line ...Continue Reading

Current TLEs

July 7th 2006 PDT

HST 1 20580U 90037B 06187.59003685 +.00000311 +00000-0 +11395-4 0 06492 2 20580 028.4691 283.3975 0003354 033.9889 326.0904 15.00060736688014 ISS (ZARYA) 1 25544U 98067A 06188.45451389 .00016203 00000-0 10488-3 0 2474 2 25544 051.6316 083.0841 0010673 049.0888 296.8818 15.76173488436355 CXO 1 25867U 99040B 06188.91666667 .00000000 00000-0 00000+0 0 9472 2 25867 059.8984 096.4228 5798788 290.5241 000.1184 00.37789498 1212 ____________________________________________________________________ These 2-Line ...Continue Reading

Current TLEs

July 6th 2006 PDT

HST 1 20580U 90037B 06186.65857111 .00000338 00000-0 13517-4 0 6474 2 20580 028.4691 289.4684 0003335 023.2153 336.8588 15.00060452687878 ISS (ZARYA) 1 25544U 98067A 06187.47055823 .00012969 00000-0 84968-4 0 2366 2 25544 051.6306 088.1542 0010759 046.3204 112.7221 15.76128841436206 CXO 1 25867U 99040B 06188.91666667 .00000000 00000-0 00000+0 0 9472 2 25867 059.8984 096.4228 5798788 290.5241 000.1184 00.37789498 1212 ____________________________________________________________________ These 2-Line ...Continue Reading

Current TLEs

July 5th 2006 PDT

HST 1 20580U 90037B 06185.39443827 .00000396 00000-0 18043-4 0 6461 2 20580 028.4690 297.7103 0003432 007.8814 352.1804 15.00060147687687 ISS (ZARYA) 1 25544U 98067A 06185.99988949 .00012192 00000-0 80284-4 0 2281 2 25544 051.6297 095.7310 0010824 040.7603 048.0702 15.76085869435976 CXO 1 25867U 99040B 06186.25000000 .00000000 00000-0 00000+0 0 9469 2 25867 059.8705 096.4466 5800111 290.6168 357.0119 00.37798006 1217 ____________________________________________________________________ These 2-Line ...Continue Reading

Current TLEs

July 4th 2006 PDT

HST 1 20580U 90037B 06183.66457217 .00000400 00000-0 18328-4 0 6458 2 20580 028.4689 308.9883 0003199 346.3545 013.6969 15.00059297687424 ISS (ZARYA) 1 25544U 98067A 06185.12123642 .00013064 00000-0 85797-4 0 2235 2 25544 051.6296 100.2570 0010689 037.8967 102.2102 15.76066818435839 CXO 1 25867U 99040B 06186.25000000 .00000000 00000-0 00000+0 0 9469 2 25867 059.8705 096.4466 5800111 290.6168 357.0119 00.37798006 1217 ____________________________________________________________________ These 2-Line ...Continue Reading

Current TLEs

July 3rd 2006 PDT

HST 1 20580U 90037B 06183.66457217 .00000400 00000-0 18328-4 0 6458 2 20580 028.4689 308.9883 0003199 346.3545 013.6969 15.00059297687424 ISS (ZARYA) 1 25544U 98067A 06183.97285226 +.00013947 +00000-0 +91410-4 0 02197 2 25544 051.6302 106.1733 0010726 033.4614 066.5672 15.76039281435654 CXO 1 25867U 99040B 06186.25000000 .00000000 00000-0 00000+0 0 9469 2 25867 059.8705 096.4466 5800111 290.6168 357.0119 00.37798006 1217 ____________________________________________________________________ These 2-Line ...Continue Reading

Current TLEs

July 2nd 2006 PDT

HST 1 20580U 90037B 06181.73510626 +.00000361 +00000-0 +15251-4 0 06603 2 20580 028.4689 321.5742 0003411 324.1563 035.8796 15.00058022687137 ISS (ZARYA) 1 25544U 98067A 06183.28199044 .00014882 00000-0 97323-4 0 2168 2 25544 051.6295 109.7382 0010817 029.6251 108.0049 15.76020078435541 CXO 1 25867U 99040B 06183.62500000 .00000000 00000-0 00000+0 0 9451 2 25867 059.8514 096.5076 5799488 290.6643 359.6022 00.37798572 1214 ____________________________________________________________________ These 2-Line ...Continue Reading

Current TLEs

July 1st 2006 PDT

HST 1 20580U 90037B 06180.73710520 .00000351 00000-0 14517-4 0 6431 2 20580 028.4689 328.0785 0003422 312.7562 047.2738 15.00057575686987 ISS (ZARYA) 1 25544U 98067A 06182.39618056 .00013992 00000-0 91870-4 0 2092 2 25544 051.6314 114.2975 0010741 026.7384 121.7472 15.75994377435401 CXO 1 25867U 99040B 06180.95833333 .00000000 00000-0 00000+0 0 9441 2 25867 059.8510 096.5654 5794794 290.7231 356.5454 00.37792062 1214 ____________________________________________________________________ These 2-Line ...Continue Reading

Current TLEs

June 30th 2006 PDT

HST 1 20580U 90037B 06180.73710520 .00000351 00000-0 14517-4 0 6431 2 20580 028.4689 328.0785 0003422 312.7562 047.2738 15.00057575686987 ISS (ZARYA) 1 25544U 98067A 06181.31630803 .00011855 00000-0 78635-4 0 2031 2 25544 051.6305 119.8582 0010709 024.1936 113.4559 15.75954597435230 CXO 1 25867U 99040B 06180.95833333 .00000000 00000-0 00000+0 0 9441 2 25867 059.8510 096.5654 5794794 290.7231 356.5454 00.37792062 1214 ____________________________________________________________________ These 2-Line ...Continue Reading
  • This mailing list is a public mailing list - anyone may join or leave, at any time.
  • This mailing list is announce-only.

International Space Station (ISS) / Hubble Space Telescope (HST) / Chandra X-Ray Observatory Orbital Data via EMAIL

Privacy Policy:

Private list